Flag for United Kingdom Weather past 2 weeks in Cheltenham, England, United Kingdom

Now
44 °F

Quite cool.


Feels Like: 40 °F
Forecast: 49 / 60 °F
Wind: 8 mph from Southwest

Location: Little Rissington

Current Time: Oct 25, 2014 at 7:41:37 AM

Latest Report: Oct 25, 2014 at 6:00 AM


Visibility: 3 mi

Pressure: 30.01 "Hg

Humidity: 100%

Dew point: 44 °F

Location of CheltenhamLocation

Historic Weather in Cheltenham — Graph

°F

Cheltenham temperature yesterday

Maximum temperature yesterday: 57 °F (at 3:00 PM)
Minimum temperature yesterday: 46 °F (at 10:00 PM)
Average temperature yesterday: 53 °F

Past Weeks' High & Low Weather Summary

 TemperatureHumidityPressure
High64 °F (Oct 17, 1:00 PM)100% (Oct 11, 7:00 AM)30.30 "Hg (Oct 11, 7:00 AM)
Low38 °F (Oct 22, 7:00 AM)59% (Oct 10, 4:00 PM)29.47 "Hg (Oct 16, 12:00 AM)
Average52 °F92%29.82 "Hg
* Reported Oct 10 6:00 AM — Oct 25 6:00 AM, Cheltenham, Weather by CustomWeather, © 2014

Note: Actual official high and low records may vary slightly from our data, if they occured in-between our weather recording intervals... More about our weather records

Advertising

Cheltenham weather history for previous 24 hours

 ConditionsComfort  
Time TempWeatherWind HumidityBarometerVisibility
6:00 AM
Oct 25
44 °FQuite cool.8 mph100%30.01 "Hg3 mi
5:00 AM42 °FQuite cool.8 mph99%30.01 "Hg2 mi
4:00 AM42 °FQuite cool.7 mph98%30.00 "Hg5 mi
1:00 AM44 °FQuite cool.5 mph99%30.01 "Hg9 mi
12:00 AM45 °FQuite cool.6 mph99%29.99 "Hg3 mi
11:00 PM
Oct 24
47 °FCool.9 mph98%29.98 "Hg9 mi
10:00 PM46 °FCool.6 mph97%29.97 "Hg22 mi
9:00 PM47 °FCool.5 mph97%29.96 "Hg22 mi
8:00 PM51 °FCool.6 mph95%29.94 "Hg25 mi
7:00 PM51 °FCool.5 mph96%29.92 "Hg28 mi
6:00 PM56 °FCool.14 mph95%29.88 "Hg28 mi
4:00 PM57 °FCool.10 mph99%29.87 "Hg19 mi
3:00 PM57 °FCool.12 mph99%29.88 "Hg19 mi
2:00 PM57 °FCool.13 mph99%29.90 "Hg16 mi
1:00 PM57 °FCool.12 mph99%29.92 "Hg2 mi
10:00 AM54 °FCool.10 mph100%29.94 "Hg7 mi
8:00 AM54 °FCool.13 mph100%29.93 "Hg7 mi
7:00 AM54 °FCool.14 mph100%29.93 "Hg10 mi
Weather by CustomWeather, © 2014

See weather overviewHow to use our weather pages